Flag for Taiwan Weather past 2 weeks in Taichung, Taiwan

Now
82 °F

Passing clouds.


Feels Like: 88 °F
Forecast: 80 / 92 °F
Wind: 9 mph from Southwest

Location: Chiang Kai Shek

Current Time: Sep 5, 2015 at 7:11:00 PM

Latest Report: Sep 5, 2015 at 6:30 PM


Visibility: N/A

Pressure: 29.77 "Hg

Humidity: 74%

Dew point: 73 °F

Location of TaichungLocation

Historic Weather in Taichung — Graph

°F

Taichung temperature yesterday

Maximum temperature yesterday: 90 °F (at 1:00 PM)
Minimum temperature yesterday: 79 °F (at 2:00 AM)
Average temperature yesterday: 83 °F

Past Weeks' High & Low Weather Summary

 TemperatureHumidityPressure
High91 °F (Aug 22, 11:00 AM)100% (Aug 25, 5:30 AM)29.98 "Hg (Aug 25, 5:30 AM)
Low75 °F (Aug 25, 7:00 AM)52% (Aug 22, 2:30 PM)29.36 "Hg (Aug 23, 3:30 PM)
Average81 °F82%29.74 "Hg
* Reported Aug 21 6:00 PM — Sep 5 6:00 PM, Taichung, Weather by CustomWeather, © 2015

Note: Actual official high and low records may vary slightly from our data, if they occured in-between our weather recording intervals... More about our weather records

Advertising

Taichung weather history for previous 24 hours

 ConditionsComfort  
Time TempWeatherWind HumidityBarometerVisibility
6:00 PM
Sat, Sep 5
82 °FPartly sunny.9 mph70%29.77 "HgN/A
5:30 PM84 °FSunny.14 mph66%29.77 "Hg10 mi
5:00 PM86 °FSunny.17 mph62%29.77 "Hg10 mi
4:30 PM88 °FSunny.18 mph55%29.74 "Hg10 mi
4:00 PM88 °FSunny.20 mph59%29.74 "Hg10 mi
3:30 PM88 °FScattered clouds.18 mph62%29.74 "HgN/A
3:00 PM88 °FScattered clouds.18 mph62%29.77 "HgN/A
2:30 PM88 °FScattered clouds.21 mph62%29.77 "HgN/A
2:00 PM88 °FBroken clouds.21 mph62%29.80 "HgN/A
1:30 PM90 °FScattered clouds.22 mph59%29.80 "HgN/A
1:00 PM90 °FScattered clouds.21 mph59%29.83 "HgN/A
12:30 PM90 °FPassing clouds.23 mph55%29.83 "HgN/A
12:00 PM90 °FScattered clouds.22 mph55%29.83 "HgN/A
11:30 AM90 °FScattered clouds.20 mph52%29.83 "HgN/A
11:00 AM90 °FBroken clouds.16 mph55%29.86 "HgN/A
10:30 AM90 °FBroken clouds.14 mph55%29.86 "HgN/A
10:00 AM86 °FBroken clouds.10 mph66%29.86 "HgN/A
9:30 AM84 °FPartly sunny.8 mph66%29.86 "HgN/A
9:00 AM84 °FPartly sunny.8 mph70%29.86 "HgN/A
8:30 AM82 °FPartly sunny.9 mph74%29.86 "HgN/A
8:00 AM82 °FPartly sunny.7 mph70%29.86 "HgN/A
7:30 AM82 °FPartly sunny.5 mph70%29.86 "HgN/A
7:00 AM81 °FPartly sunny.6 mph74%29.86 "HgN/A
6:30 AM79 °FPartly sunny.5 mph79%29.86 "HgN/A
5:00 AM79 °FPassing clouds.3 mph84%29.83 "HgN/A
4:30 AM79 °FPassing clouds.3 mph84%29.83 "HgN/A
4:00 AM79 °FPassing clouds.6 mph84%29.83 "HgN/A
3:30 AM79 °FPassing clouds.5 mph84%29.86 "HgN/A
3:00 AM79 °FPassing clouds.5 mph84%29.86 "HgN/A
2:30 AM79 °FPassing clouds.3 mph84%29.86 "HgN/A
2:00 AM79 °FPassing clouds.3 mph84%29.86 "HgN/A
1:30 AM79 °FPassing clouds.5 mph89%29.89 "HgN/A
1:00 AM79 °FPassing clouds.3 mph89%29.89 "HgN/A
12:30 AM79 °FPassing clouds.5 mph89%29.89 "HgN/A
12:00 AM79 °FPassing clouds.5 mph89%29.89 "HgN/A
11:30 PM
Fri, Sep 4
79 °FPassing clouds.5 mph89%29.92 "HgN/A
11:00 PM81 °FPassing clouds.5 mph84%29.92 "HgN/A
10:30 PM79 °FPassing clouds.5 mph89%29.92 "HgN/A
10:00 PM79 °FPassing clouds.5 mph89%29.92 "HgN/A
9:56 PM79 °FPassing clouds.5 mph89%29.92 "HgN/A
9:30 PM81 °FPassing clouds.1 mph84%29.92 "HgN/A
9:00 PM81 °FPartly cloudy.1 mph84%29.92 "HgN/A
8:30 PM82 °FPassing clouds.2 mph79%29.92 "HgN/A
8:00 PM82 °FPassing clouds.5 mph79%29.92 "HgN/A
7:30 PM82 °FPassing clouds.7 mph74%29.92 "HgN/A
7:00 PM82 °FPartly cloudy.6 mph79%29.89 "HgN/A
Weather by CustomWeather, © 2015

See weather overviewHow to use our weather pages